Weather Roundup
Issued by NWS Springfield, MO

Home | Current Version | Previous Version | Text Only | Print | Product List | Glossary On
Versions: 1 2 3 4 5 6 7 8 9 10 11 12 13 14 15 16 17 18 19 20 21 22 23 24 25 26 27 28 29 30 31 32 33 34 35 36 37 38 39 40 41 42 43 44 45 46 47 48 49 50
000
NZUS99 KSGF 152207
HRRSGF

HOURLY WEATHER
NATIONAL WEATHER SERVICE SPRINGFIELD MO
500 PM CDT MON SEP 15 2014

......SGF CWA......

CITY           SKY/WX    TMP DP  RH WIND       PRES   REMARKS
SPRINGFIELD    MOSUNNY   84  65  52 W15G23    30.08S
JOPLIN         MOSUNNY   84  67  56 SW14      30.08F
WEST PLAINS    SUNNY     79  66  64 SW8       30.10F
ROLLA          CLOUDY    73  66  78 N14       30.07R
OSAGE BEACH    CLOUDY    73  66  78 N7G16     30.08R
BRANSON        PTSUNNY   84  66  54 W14       30.12F

......SURROUNDING SGF CWA......

CITY           SKY/WX    TMP DP  RH WIND       PRES   REMARKS
CHANUTE        LGT RAIN  76  65  68 N16G24    30.10R
PARSONS        TSTM      75  68  78 N9        30.09R
COFFEYVILLE    MOSUNNY   87  67  51 SW14      30.05F HX  90
EMPORIA        CLOUDY    68  59  73 NE17      30.15S
GROVE OK       SUNNY     82  68  61 W7        30.11S
ROGERS AR      SUNNY     79  66  64 SW8       30.13F
SILOAM SPRINGS MOSUNNY   81  66  61 W6        30.13S
HARRISON AR    MOSUNNY   79  67  66 W8        30.13S
NEAR YELLVILLE PTSUNNY   79  66  65 S5        30.10S

......KANSAS AND MISSOURI......

CITY           SKY/WX    TMP DP  RH WIND       PRES   REMARKS
KANSAS CTY INT CLOUDY    67  59  75 N15       30.15R
DOWNTOWN KC    CLOUDY    69  60  73 N6        30.14S
COLUMBIA       CLOUDY    68  63  84 NW14      30.09R
SEDALIA        CLOUDY    67  63  87 N9        30.11S
ST JOSEPH      CLOUDY    65  54  67 N15       30.18R
ST LOUIS       CLOUDY    71  67  87 W9        30.06S FOG
SPIRIT OF STL  LGT RAIN  69  67  93 VRB6      30.05S FOG
KIRKSVILLE     CLOUDY    62  57  83 NW16      30.14R
WICHITA        MOSUNNY   76  63  64 N18G24    30.13R
TOPEKA         CLOUDY    70  59  68 N12       30.16S
OLATHE         CLOUDY    67  60  78 N14       30.14R

......TENNESSEE......

CITY           SKY/WX    TMP DP  RH WIND       PRES   REMARKS
MEMPHIS        CLOUDY    80  64  58 SW5       30.10F
NASHVILLE      CLOUDY    72  64  76 CALM      30.12S

......ARKANSAS.......

CITY           SKY/WX    TMP DP  RH WIND       PRES   REMARKS
FAYETTEVILLE   MOSUNNY   79  66  64 S12       30.12F
FT SMITH       CLOUDY    78  68  71 SE5       30.10F
LITTLE ROCK    CLOUDY    77  64  64 W5        30.11S

......OKLAHOMA.......

CITY           SKY/WX    TMP DP  RH WIND       PRES   REMARKS
TULSA          PTSUNNY   88  66  48 S14       30.06F HX  90
PONCA CITY     CLOUDY    88  64  44 SW8       30.04F
MCALESTER      CLOUDY    79  69  71 CALM      30.12F
OKLAHOMA CITY  PTSUNNY   83  64  52 S6        30.11S

......IOWA............

CITY           SKY/WX    TMP DP  RH WIND       PRES   REMARKS
DES MOINES     PTSUNNY   61  47  59 N16       30.19S
QUAD CITIES    LGT RAIN  58  51  78 N12       30.12R

......ILLINOIS........

CITY           SKY/WX    TMP DP  RH WIND       PRES   REMARKS
QUINCY         CLOUDY    63  59  87 N7        30.10R
CHICAGO        CLOUDY    59  53  80 NW5       30.09S



USA.gov is the U.S. government's official web portal to all federal, state and local government web resources and services.